TimeICT,TemperatureF,Dew PointF,Humidity,Sea Level PressureIn,VisibilityMPH,Wind Direction,Wind SpeedMPH,Gust SpeedMPH,PrecipitationIn,Events,Conditions,WindDirDegrees,DateUTC
12:00 AM,82.4,68.0,62,29.95,5.6,East,11.5,-,N/A,,Scattered Clouds,100,2013-03-04 17:00:00
12:30 AM,82.4,69.8,66,29.95,5.6,East,12.7,-,N/A,,Scattered Clouds,100,2013-03-04 17:30:00
1:00 AM,82,71,62,29.90,6,East,5.8,,,,Scattered Clouds,90,2013-03-04 18:00:00
1:00 AM,82.4,69.8,66,29.92,5.6,East,10.4,-,N/A,,Scattered Clouds,100,2013-03-04 18:00:00
1:30 AM,80.6,69.8,70,29.92,5.6,Variable,2.3,-,N/A,,Scattered Clouds,0,2013-03-04 18:30:00
2:00 AM,80.6,69.8,70,29.92,5.6,ENE,4.6,-,N/A,,Scattered Clouds,60,2013-03-04 19:00:00
2:30 AM,80.6,69.8,70,29.92,5.6,East,4.6,-,N/A,,Scattered Clouds,80,2013-03-04 19:30:00
3:00 AM,78.8,71.6,78,29.89,5.6,East,4.6,-,N/A,,Scattered Clouds,80,2013-03-04 20:00:00
3:30 AM,80.6,71.6,74,29.89,5.6,ENE,3.5,-,N/A,,Scattered Clouds,60,2013-03-04 20:30:00
4:00 AM,78.8,69.8,74,29.89,5.6,Variable,2.3,-,N/A,,Scattered Clouds,0,2013-03-04 21:00:00
4:30 AM,78.8,69.8,74,29.89,5.6,Variable,1.2,-,N/A,,Scattered Clouds,0,2013-03-04 21:30:00
5:00 AM,78.8,69.8,74,29.89,5.6,ENE,3.5,-,N/A,,Scattered Clouds,60,2013-03-04 22:00:00
5:30 AM,78.8,69.8,74,29.89,5.6,Variable,2.3,-,N/A,,Scattered Clouds,0,2013-03-04 22:30:00
6:00 AM,77.0,69.8,78,29.92,5.6,Variable,2.3,-,N/A,,Scattered Clouds,0,2013-03-04 23:00:00
6:30 AM,77.0,71.6,83,29.92,5.0,Calm,Calm,-,N/A,,Mostly Cloudy,0,2013-03-04 23:30:00
7:00 AM,79,74,79,29.90,6,Calm,Calm,,,,Scattered Clouds,,2013-03-05 00:00:00
7:00 AM,78.8,71.6,78,29.92,5.6,Calm,Calm,-,N/A,,Scattered Clouds,0,2013-03-05 00:00:00
7:30 AM,80.6,71.6,74,29.92,5.6,Calm,Calm,-,N/A,,Scattered Clouds,0,2013-03-05 00:30:00
8:00 AM,82.4,71.6,70,29.95,5.6,Variable,2.3,-,N/A,,Mostly Cloudy,0,2013-03-05 01:00:00
8:30 AM,84.2,73.4,70,29.95,5.6,NNE,4.6,-,N/A,,Mostly Cloudy,20,2013-03-05 01:30:00
9:00 AM,84.2,71.6,66,29.98,5.6,ENE,5.8,-,N/A,,Mostly Cloudy,60,2013-03-05 02:00:00
9:30 AM,86.0,71.6,62,29.98,5.6,ENE,8.1,-,N/A,,Scattered Clouds,60,2013-03-05 02:30:00
10:00 AM,86.0,71.6,62,29.98,-9999.0,North,-9999.0,-,N/A,,Scattered Clouds,0,2013-03-05 03:00:00
10:30 AM,87.8,71.6,58,29.98,5.6,East,13.8,-,N/A,,Scattered Clouds,90,2013-03-05 03:30:00
11:00 AM,87.8,71.6,58,29.95,5.6,East,11.5,-,N/A,,Mostly Cloudy,80,2013-03-05 04:00:00
11:30 AM,89.6,69.8,52,29.95,5.6,East,15.0,-,N/A,,Mostly Cloudy,100,2013-03-05 04:30:00
12:00 PM,89.6,69.8,52,29.92,5.6,East,16.1,-,N/A,,Mostly Cloudy,100,2013-03-05 05:00:00
12:30 PM,89.6,69.8,52,29.92,5.6,East,11.5,-,N/A,,Mostly Cloudy,90,2013-03-05 05:30:00
1:00 PM,91,72,45,29.89,6,ENE,4.6,,,,Mist,70,2013-03-05 06:00:00
1:00 PM,91.4,69.8,49,29.89,5.6,East,15.0,-,N/A,,Mostly Cloudy,80,2013-03-05 06:00:00
1:30 PM,89.6,69.8,52,29.86,5.6,East,13.8,-,N/A,,Mostly Cloudy,100,2013-03-05 06:30:00
2:00 PM,91.4,69.8,49,29.86,5.6,ENE,12.7,-,N/A,,Scattered Clouds,70,2013-03-05 07:00:00
2:30 PM,93.2,68.0,44,29.86,5.6,East,15.0,-,N/A,,Mostly Cloudy,80,2013-03-05 07:30:00
3:00 PM,93.2,68.0,44,29.83,5.6,East,12.7,-,N/A,,Mostly Cloudy,90,2013-03-05 08:00:00
3:30 PM,91.4,68.0,46,29.83,5.0,ENE,6.9,-,N/A,,Mostly Cloudy,70,2013-03-05 08:30:00
4:00 PM,89.6,69.8,52,29.80,5.0,East,5.8,-,N/A,,Mostly Cloudy,80,2013-03-05 09:00:00
4:30 PM,89.6,68.0,49,29.80,5.0,East,9.2,-,N/A,,Mostly Cloudy,90,2013-03-05 09:30:00
5:00 PM,89.6,71.6,55,29.83,5.0,NNE,9.2,-,N/A,,Mostly Cloudy,20,2013-03-05 10:00:00
5:30 PM,84.2,71.6,66,29.83,3.1,ESE,12.7,-,N/A,Rain,Rain,120,2013-03-05 10:30:00
6:00 PM,86.0,73.4,66,29.83,4.3,ESE,5.8,-,N/A,,Mostly Cloudy,120,2013-03-05 11:00:00
6:30 PM,84.2,71.6,66,29.83,4.3,Variable,2.3,-,N/A,,Mostly Cloudy,0,2013-03-05 11:30:00
7:00 PM,82,76,78,29.82,5,East,2.3,,,,Mist,100,2013-03-05 12:00:00
7:00 PM,82.4,71.6,70,29.86,4.3,SE,4.6,-,N/A,,Mostly Cloudy,130,2013-03-05 12:00:00
7:30 PM,84.2,69.8,62,29.86,4.3,ESE,4.6,-,N/A,,Mostly Cloudy,120,2013-03-05 12:30:00
8:30 PM,82.4,71.6,70,29.89,6.2,East,5.8,-,N/A,,Scattered Clouds,90,2013-03-05 13:30:00
9:00 PM,84.2,69.8,62,29.92,6.2,ESE,8.1,-,N/A,,Scattered Clouds,110,2013-03-05 14:00:00
9:30 PM,84.2,69.8,62,29.92,6.2,East,6.9,-,N/A,,Scattered Clouds,90,2013-03-05 14:30:00
10:00 PM,84.2,69.8,62,29.92,6.2,East,10.4,-,N/A,,Scattered Clouds,90,2013-03-05 15:00:00
10:30 PM,84.2,69.8,62,29.92,6.2,East,11.5,-,N/A,,Mostly Cloudy,90,2013-03-05 15:30:00
11:00 PM,84.2,71.6,66,29.92,6.2,East,12.7,-,N/A,,Mostly Cloudy,100,2013-03-05 16:00:00
11:30 PM,82.4,71.6,70,29.92,6.2,East,15.0,-,N/A,,Mostly Cloudy,100,2013-03-05 16:30:00